Creek Data

    Home     View Charts     View Raw Data     Messages

ID Distance Battery Voltage Battery Current Internal Temp Internal Humidity External Temp Solar Input rssi snr Time Stamp Record
35439 15.4 4.03 0 73 37 65 5.1 -77 7 03/19/2025 03:15 PM 17202
35438 15.2 4.03 0 69 39 66 5.1 -79 7 03/19/2025 02:45 PM 17200
35437 15.3 4.03 0 69 38 64 5.1 -78 7 03/19/2025 02:30 PM 17199
35436 0.0 4.03 0 71 37 64 5.1 -77 9 03/19/2025 02:15 PM 17198
35435 15.4 4.03 0 66 39 63 5.1 -80 8 03/19/2025 02:00 PM 17197
35434 15.2 4.03 0 64 40 61 5.1 -79 7 03/19/2025 01:45 PM 17196
35433 0.0 4.03 0 63 40 61 5.1 -78 8 03/19/2025 01:30 PM 17195
35432 0.0 4.05 0 63 40 60 5.1 -79 9 03/19/2025 01:15 PM 17194
35431 15.3 4.13 72 64 39 60 4.5 -79 7 03/19/2025 01:00 PM 17193
35430 15.3 4.02 5 65 38 61 5.1 -81 8 03/19/2025 12:46 PM 17192
35429 15.3 4.02 5 66 37 62 5.1 -80 6 03/19/2025 12:30 PM 17191
35428 0.0 4.02 0 65 37 61 5.1 -79 8 03/19/2025 12:15 PM 17190
35427 15.3 4.02 5 64 37 61 5.1 -79 8 03/19/2025 12:00 PM 17189
35426 15.4 4.14 5 63 37 60 5.1 -79 7 03/19/2025 11:45 AM 17188
35425 15.4 4.05 5 63 36 60 5.1 -79 8 03/19/2025 11:30 AM 17187
35424 15.5 4.02 5 62 36 60 5.1 -80 7 03/19/2025 11:15 AM 17186
35423 15.5 4.02 5 61 36 61 5.1 -81 8 03/19/2025 11:00 AM 17185
35422 15.4 4.01 5 59 35 59 5.1 -79 8 03/19/2025 10:45 AM 17184
35421 15.5 4.01 0 57 35 61 5.1 -80 7 03/19/2025 10:30 AM 17183
35420 15.4 4.01 0 55 35 60 5.1 -80 8 03/19/2025 10:15 AM 17182
35419 15.4 4.01 0 52 36 55 5.1 -80 8 03/19/2025 10:00 AM 17181
35418 15.4 4.02 5 52 35 56 5.1 -78 7 03/19/2025 09:45 AM 17180
35417 15.5 4.01 0 50 35 56 5.1 -78 7 03/19/2025 09:30 AM 17179
35416 15.5 4.01 0 48 35 54 5.1 -78 8 03/19/2025 09:15 AM 17178
35415 15.3 4.01 0 45 36 49 5.1 -76 9 03/19/2025 09:00 AM 17177